Zakynthos, Greece

4:53 AM EEST on August 30, 2016 (GMT +0300)
Dionysios Solomos

Weather History for LGZA - June, 2013

Change the Weather History Date:

Saturday, June 22, 2013

  Actual Average Record
Temperature  
Mean Temperature 84 °F -  
Max Temperature 96 °F 86 °F 98 °F (2012)
Min Temperature 73 °F 68 °F 57 °F (2014)
Cooling Degree Days 20    
Growing Degree Days 34 (Base 50)    
Moisture  
Dew Point 67 °F    
Average Humidity 49    
Maximum Humidity 83    
Minimum Humidity 34    
Precipitation  
Precipitation 0.00 in 0.01 in - ()
Sea Level Pressure  
Sea Level Pressure 29.88 in    
Wind  
Wind Speed 5 mph ()    
Max Wind Speed 8 mph    
Max Gust Speed -    
Averages and records for this station are not official NWS values.
T = Trace of Precipitation, MM = Missing Value Source: Averaged Metar Reports

Daily Weather History Graph

Daily Weather History Graph

Search for Another Location

Airport or City:

Trip Planner

Search our weather history database for the weather conditions in past years. The results will help you decide how hot, cold, wet, or windy it might be!

Date:

Astronomy

Jun. 22, 2013 Rise Set
Actual Time 6:15 AM EEST 9:01 PM EEST
Civil Twilight 5:43 AM EEST 9:33 PM EEST
Nautical Twilight 5:04 AM EEST 10:12 PM EEST
Astronomical Twilight 4:20 AM EEST 10:56 PM EEST
Moon 7:58 PM EEST (6/22) 5:08 AM EEST (6/22)
Length of Visible Light 15h 49m
Length of Day
14h 46m
Waxing Gibbous, 98% of the Moon is Illuminated
Jun 22
Waxing Gibbous
Jun 23
Full
Jun 30
Last Quarter
Jul 8
New
Jul 16
First Quarter

Hourly Weather History & Observations

Time (EEST) Temp. Heat Index Dew Point Humidity Pressure Visibility Wind Dir Wind Speed Gust Speed Precip Events Conditions
7:20 AM 73.4 °F - 68.0 °F 83% 29.89 in - Calm Calm - N/A   Clear
7:50 AM 77.0 °F - 66.2 °F 69% 29.89 in - North 4.6 mph - N/A   Clear
8:20 AM 78.8 °F - 69.8 °F 74% 29.89 in - NNW 4.6 mph - N/A   Clear
8:50 AM 80.6 °F 83.2 °F 68.0 °F 65% 29.89 in - NNW 5.8 mph - N/A   Clear
9:20 AM 82.4 °F 85.4 °F 68.0 °F 62% 29.92 in - North 5.8 mph - N/A   Clear
9:50 AM 84.2 °F 87.3 °F 68.0 °F 58% 29.92 in - NNE 4.6 mph - N/A   Clear
10:20 AM 86.0 °F 89.4 °F 68.0 °F 55% 29.89 in - NNE 5.8 mph - N/A   Clear
10:50 AM 86.0 °F 89.4 °F 68.0 °F 55% 29.89 in - NNE 6.9 mph - N/A   Clear
11:20 AM 87.8 °F 89.4 °F 64.4 °F 46% 29.89 in - NNE 6.9 mph - N/A   Clear
11:50 AM 91.4 °F 95.4 °F 68.0 °F 46% 29.89 in - NNE 6.9 mph - N/A   Clear
12:20 PM 91.4 °F 95.4 °F 68.0 °F 46% 29.89 in - NNE 6.9 mph - N/A   Clear
12:50 PM 91.4 °F 95.4 °F 68.0 °F 46% 29.89 in - NNE 6.9 mph - N/A   Clear
1:20 PM 91.4 °F 95.4 °F 68.0 °F 46% 29.89 in - NNE 6.9 mph - N/A   Clear
1:50 PM 93.2 °F 96.2 °F 66.2 °F 41% 29.89 in - NNE 6.9 mph - N/A   Clear
2:50 PM 95.0 °F 98.5 °F 66.2 °F 39% 29.89 in - North 6.9 mph - N/A   Clear
3:20 PM 96.8 °F 101.8 °F 68.0 °F 39% 29.89 in - North 6.9 mph - N/A   Clear
3:50 PM 96.8 °F 99.0 °F 64.4 °F 34% 29.89 in - North 6.9 mph - N/A   Clear
4:20 PM 96.8 °F 99.0 °F 64.4 °F 34% 29.89 in - North 6.9 mph - N/A   Clear
4:50 PM 96.8 °F 99.0 °F 64.4 °F 34% 29.89 in - NNW 8.1 mph - N/A   Clear
5:20 PM 96.8 °F 99.0 °F 64.4 °F 34% 29.86 in - North 8.1 mph - N/A   Clear
5:50 PM 95.0 °F 99.5 °F 68.0 °F 41% 29.83 in - North 6.9 mph - N/A   Clear
6:20 PM 95.0 °F 99.5 °F 68.0 °F 41% 29.83 in - North 6.9 mph - N/A   Clear
6:50 PM 95.0 °F 99.5 °F 68.0 °F 41% 29.83 in - North 6.9 mph - N/A   Clear
7:50 PM 91.4 °F 93.2 °F 64.4 °F 41% 29.83 in - North 6.9 mph - N/A   Clear
8:20 PM 91.4 °F 93.2 °F 64.4 °F 41% 29.83 in - North 6.9 mph - N/A   Clear
8:50 PM 86.0 °F 91.8 °F 71.6 °F 62% 29.83 in - NNW 4.6 mph - N/A   Clear